[[{"header":{"parameterUnit":"m.s-1","parameterCategory":1,"la1":30.2991,"la2":30.254,"lo1":-89.0895,"lo2":-89.0444,"dy":0.0017,"dx":0.0017,"nx":28,"ny":28,"refTime":"2025-06-17T21:00:00:Z","depth":0,"parameterNumber":2,"parameterNumberName":"U-component_of_WINDS"},"data":[0,0,0,0,0,0,0,0,0,0,0,0,0,0,0,0,0,0,0,0,0,0,0,0,0,0,0,0,0,0,0,0,0,0,0,0,0,0,0,0,0,0,0,0,0,0,0,0,0,0,0,0,0,0,0,0,0,0,-0.1638,-0.1637,0,-0.1624,-0.1623,-0.1623,-0.162,-0.162,-0.162,-0.162,-0.1603,-0.1602,-0.1602,0,0,0,0,0,0,0,0,0,0,0,0,0,-0.166,-0.1659,-0.1638,-0.1637,-0.1637,-0.1624,-0.1623,-0.1623,-0.162,-0.162,-0.162,-0.162,-0.1603,-0.1602,-0.1601,0,0,0,0,0,0,0,0,0,0,0,0,0,-0.1648,-0.1659,-0.1638,-0.1634,-0.1633,-0.1624,-0.1623,-0.1623,-0.162,-0.162,-0.162,-0.162,-0.1603,-0.1602,-0.1601,-0.1593,0,0,-0.1599,-0.1599,0,0,0,0,0,0,0,0,-0.1649,-0.1647,-0.1635,-0.1634,-0.1634,-0.1624,-0.1625,-0.1613,-0.1619,-0.1625,-0.162,-0.162,-0.1609,-0.1608,-0.1605,-0.1593,-0.1592,-0.1599,-0.1598,-0.1598,-0.1598,0,0,0,0,0,0,0,-0.165,-0.1648,-0.1632,-0.1634,-0.1634,-0.1632,-0.1631,-0.1623,-0.1616,-0.1624,-0.1624,-0.1622,-0.1609,-0.1606,-0.1604,-0.1592,-0.1599,-0.1598,-0.1598,-0.1597,-0.1573,-0.1573,0,0,0,0,0,0,-0.1651,-0.1649,-0.1632,-0.1632,-0.1642,-0.1632,-0.163,-0.1627,-0.1616,-0.1615,-0.1622,-0.1622,-0.1607,-0.1605,-0.1604,-0.1594,-0.1598,-0.1597,-0.1597,-0.1573,-0.1573,-0.1573,0,0,0,0,0,0,-0.1652,-0.165,-0.1633,-0.164,-0.1638,-0.1631,-0.1627,-0.1626,-0.1623,-0.1615,-0.1614,-0.162,-0.1607,-0.1605,-0.1596,-0.1594,-0.1597,-0.1596,-0.1573,-0.1573,-0.1573,-0.1575,0,0,0,0,0,0,-0.1653,-0.165,-0.1647,-0.164,-0.1637,-0.1626,-0.1627,-0.1626,-0.1622,-0.1622,-0.1613,-0.1611,-0.1607,-0.1598,-0.1596,-0.1593,-0.1595,-0.1574,-0.1573,-0.1573,-0.1575,-0.1575,-0.1575,0,0,0,0,0,-0.1653,-0.1648,-0.1647,-0.1645,-0.1634,-0.1626,-0.1625,-0.1621,-0.1622,-0.1619,-0.1614,-0.1612,-0.1595,-0.1597,-0.1595,-0.1591,-0.1574,-0.1573,-0.1573,-0.1576,-0.1575,-0.1575,0,0,0,0,0,0,-0.1654,-0.1647,-0.1646,-0.1638,-0.1633,-0.1626,-0.1622,-0.162,-0.1614,-0.1614,-0.1609,-0.1607,-0.1599,-0.1594,-0.1597,-0.1583,-0.1584,-0.1583,-0.1587,-0.1586,-0.1586,-0.1587,-0.1595,0,0,0,0,0,-0.1653,-0.1648,-0.1642,-0.1636,-0.1633,-0.1628,-0.1624,-0.1622,-0.1616,-0.1614,-0.1608,-0.1601,-0.1595,-0.159,-0.1584,-0.1575,-0.1573,-0.1572,-0.1571,-0.1571,-0.157,-0.1566,-0.1566,-0.1572,-0.1572,-0.1572,0,0,-0.1652,-0.1647,-0.1644,-0.1636,-0.1631,-0.1626,-0.1626,-0.162,-0.1616,-0.1612,-0.1604,-0.16,-0.1592,-0.1584,-0.158,-0.158,-0.1568,-0.1571,-0.1571,-0.157,-0.1566,-0.1565,-0.1565,-0.1571,-0.1572,-0.1572,0,0,-0.1646,-0.1642,-0.1637,-0.1633,-0.1627,-0.1624,-0.1622,-0.1615,-0.1613,-0.1605,-0.1603,-0.1597,-0.1585,-0.1581,-0.1576,-0.157,-0.1568,-0.1568,-0.1567,-0.1563,-0.1562,-0.1562,-0.156,-0.1559,-0.1567,-0.1567,-0.1567,0,-0.1645,-0.1637,-0.1634,-0.1629,-0.1625,-0.1623,-0.1617,-0.1613,-0.1605,-0.1602,-0.1603,-0.1589,-0.1584,-0.1574,-0.1573,-0.157,-0.1568,-0.1569,-0.1563,-0.1562,-0.1562,-0.156,-0.1559,-0.1567,-0.1567,-0.1567,-0.1567,0,-0.1636,-0.163,-0.1627,-0.162,-0.1616,-0.161,-0.1606,-0.1603,-0.1601,-0.1597,-0.159,-0.1584,-0.1576,-0.1574,-0.1571,-0.1564,-0.1565,-0.1564,-0.1564,-0.1561,-0.1559,-0.1559,-0.1568,-0.1568,-0.1568,-0.1568,0,0,-0.1629,-0.1622,-0.1621,-0.1618,-0.1612,-0.1607,-0.1602,-0.1595,-0.1593,-0.1587,-0.1582,-0.1573,-0.1573,-0.1568,-0.1565,-0.1562,-0.1558,-0.1561,-0.1561,-0.1561,-0.155,-0.1551,-0.155,-0.1556,-0.1556,-0.1556,-0.1551,0,-0.1623,-0.1614,-0.1612,-0.1604,-0.1599,-0.1597,-0.1592,-0.1588,-0.1585,-0.158,-0.1576,-0.157,-0.157,-0.1567,-0.1564,-0.1559,-0.1555,-0.1559,-0.1551,-0.1551,-0.1554,-0.1549,-0.1549,-0.1545,-0.155,-0.155,-0.155,0,-0.1614,-0.161,-0.1602,-0.1597,-0.1595,-0.1591,-0.1585,-0.1581,-0.1575,-0.1573,-0.1569,-0.1567,-0.1561,-0.1562,-0.1553,-0.1556,-0.1553,-0.155,-0.155,-0.1549,-0.155,-0.1548,-0.1543,-0.1542,-0.1549,-0.1549,-0.1549,0,-0.1611,-0.1603,-0.1597,-0.1595,-0.1589,-0.1586,-0.1583,-0.1579,-0.1575,-0.157,-0.1568,-0.1562,-0.1559,-0.1554,-0.155,-0.1551,-0.1542,-0.1542,-0.154,-0.154,-0.1537,-0.1538,-0.1532,-0.1535,-0.1535,-0.1535,-0.1535,0,-0.1604,-0.1599,-0.1596,-0.1592,-0.1587,-0.1584,-0.1579,-0.1576,-0.1572,-0.1567,-0.1565,-0.1561,-0.1556,-0.1551,-0.1548,-0.1542,-0.154,-0.1538,-0.1537,-0.1538,-0.1539,-0.1536,-0.1536,-0.1535,-0.1535,-0.1535,-0.1535,0,-0.1599,-0.1597,-0.1591,-0.1586,-0.1585,-0.1581,-0.1577,-0.1573,-0.1571,-0.1565,-0.1564,-0.1559,-0.1553,-0.1549,-0.1541,-0.1539,-0.1533,-0.1532,-0.1535,-0.1534,-0.1532,-0.1532,-0.1524,-0.1523,-0.1527,-0.1527,-0.1527,0,-0.1595,-0.1592,-0.1587,-0.1585,-0.1582,-0.1578,-0.1575,-0.1572,-0.1569,-0.1563,-0.1561,-0.1555,-0.155,-0.1541,-0.1537,-0.1531,-0.153,-0.1528,-0.1529,-0.153,-0.153,-0.1531,-0.153,-0.1527,-0.1527,-0.1527,-0.1527,0,-0.1588,-0.1587,-0.1584,-0.158,-0.1576,-0.1573,-0.1569,-0.1567,-0.1564,-0.156,-0.1555,-0.1551,-0.1544,-0.1539,-0.1533,-0.1529,-0.1528,-0.1527,-0.1526,-0.1527,-0.1529,-0.1528,-0.1534,-0.1527,-0.1527,-0.1527,-0.1527,-0.1527,-0.1584,-0.1581,-0.1577,-0.1573,-0.1571,-0.1567,-0.1564,-0.1562,-0.1558,-0.1552,-0.1551,-0.1545,-0.1541,-0.1533,-0.153,-0.1525,-0.1525,-0.1524,-0.1523,-0.1523,-0.1523,-0.153,-0.1524,-0.1524,-0.1524,-0.1524,-0.1524,0,-0.1577,-0.1575,-0.1571,-0.1567,-0.1564,-0.1564,-0.156,-0.1557,-0.1553,-0.1549,-0.1545,-0.1539,-0.1534,-0.153,-0.1525,-0.1522,-0.1521,-0.1521,-0.1521,-0.152,-0.1523,-0.1525,-0.1521,-0.1521,-0.1521,-0.1521,-0.1521,-0.1521,-0.1573,-0.1568,-0.1567,-0.1561,-0.1559,-0.1555,-0.1552,-0.155,-0.1547,-0.1541,-0.1537,-0.1535,-0.1531,-0.1525,-0.1521,-0.152,-0.1518,-0.1518,-0.1516,-0.1519,-0.152,-0.152,-0.1521,-0.1517,-0.1517,-0.1513,-0.1513,-0.1513]},{"header":{"parameterUnit":"m.s-1","parameterCategory":1,"la1":30.2991,"la2":30.254,"lo1":-89.0895,"lo2":-89.0444,"dy":0.0017,"dx":0.0017,"nx":28,"ny":28,"refTime":"2025-06-17T21:00:00:Z","depth":0,"parameterNumber":3,"parameterNumberName":"V-component_of_WINDS"},"data":[0,0,0,0,0,0,0,0,0,0,0,0,0,0,0,0,0,0,0,0,0,0,0,0,0,0,0,0,0,0,0,0,0,0,0,0,0,0,0,0,0,0,0,0,0,0,0,0,0,0,0,0,0,0,0,0,0,0,3.9996,3.9998,0,4.0122,4.0123,4.0124,4.0158,4.0158,4.0157,4.0156,4.0279,4.0282,4.0286,0,0,0,0,0,0,0,0,0,0,0,0,0,3.9781,3.9784,3.9996,3.9998,3.9999,4.0121,4.0123,4.0125,4.0159,4.0158,4.0157,4.0156,4.0277,4.0282,4.0287,0,0,0,0,0,0,0,0,0,0,0,0,0,3.9887,3.9786,3.9996,4.0031,4.0035,4.0121,4.0123,4.0125,4.0159,4.0158,4.0157,4.0156,4.0276,4.0281,4.0287,4.0345,0,0,4.0305,4.0308,0,0,0,0,0,0,0,0,3.9881,3.9895,4.0024,4.0029,4.0034,4.0123,4.0092,4.0199,4.0159,4.0112,4.0156,4.0155,4.0227,4.0237,4.0263,4.0351,4.0356,4.0306,4.0309,4.0312,4.0313,0,0,0,0,0,0,0,3.9873,3.9889,4.0046,4.0026,4.0032,4.0039,4.0053,4.0112,4.0174,4.0116,4.0119,4.0133,4.023,4.0257,4.0266,4.0358,4.0306,4.0311,4.0314,4.0317,4.0499,4.05,0,0,0,0,0,0,3.9861,3.9883,4.0042,4.0049,3.9953,4.0043,4.0059,4.0096,4.0173,4.0184,4.0134,4.0134,4.0248,4.0259,4.027,4.0343,4.0312,4.0317,4.0321,4.0497,4.0499,4.05,0,0,0,0,0,0,3.9856,3.9875,4.0037,3.9967,3.9988,4.0048,4.0089,4.0099,4.0126,4.0187,4.0198,4.0151,4.0247,4.0262,4.0327,4.0348,4.032,4.0325,4.0496,4.0498,4.05,4.0488,0,0,0,0,0,0,3.985,3.9873,3.9896,3.9967,3.9992,4.0092,4.0091,4.0102,4.0137,4.0139,4.0206,4.0216,4.0247,4.0318,4.0332,4.0355,4.033,4.0494,4.0497,4.0499,4.0487,4.049,4.0492,0,0,0,0,0,3.9842,3.9887,3.9898,3.9916,4.0023,4.0094,4.0107,4.0144,4.0139,4.0162,4.0201,4.0214,4.0343,4.0324,4.0341,4.0366,4.0493,4.0496,4.0499,4.0486,4.0489,4.0492,0,0,0,0,0,0,3.9814,3.9897,3.9909,3.9979,4.0029,4.0099,4.013,4.0146,4.0198,4.0197,4.0239,4.0253,4.0315,4.0347,4.0324,4.0425,4.0418,4.0424,4.0402,4.0406,4.0408,4.0399,4.0335,0,0,0,0,0,3.9817,3.9869,3.9938,3.9992,4.0017,4.0069,4.0101,4.0126,4.0178,4.0199,4.0243,4.0292,4.0344,4.0377,4.0428,4.0492,4.0507,4.0518,4.052,4.0522,4.0526,4.0562,4.0568,4.051,4.051,4.051,0,0,3.9822,3.9873,3.9903,3.9988,4.003,4.0081,4.0087,4.0141,4.0179,4.0207,4.0271,4.0305,4.0362,4.0427,4.0457,4.0455,4.0546,4.0525,4.0526,4.053,4.0566,4.0571,4.0576,4.0512,4.0512,4.0511,0,0,3.9857,3.9902,3.9953,3.9995,4.0059,4.0093,4.0105,4.0173,4.0197,4.0263,4.0285,4.033,4.0418,4.0458,4.049,4.0541,4.0554,4.0556,4.0568,4.0603,4.0607,4.0612,4.0629,4.0635,4.0561,4.0561,4.0561,0,3.9854,3.9935,3.9976,4.003,4.0066,4.0096,4.0147,4.0185,4.0261,4.0285,4.0282,4.0393,4.0434,4.0508,4.0521,4.0546,4.056,4.0548,4.0604,4.0609,4.0613,4.063,4.0637,4.0561,4.0561,4.0561,4.0561,0,3.9928,3.9983,4.0017,4.0092,4.0132,4.0184,4.0231,4.0266,4.0287,4.0321,4.0387,4.0437,4.0499,4.0518,4.0538,4.0595,4.0592,4.0596,4.0589,4.0618,4.0635,4.0641,4.056,4.056,4.056,4.056,0,0,3.9949,4.0048,4.0059,4.0094,4.0167,4.0209,4.0262,4.0324,4.0353,4.0405,4.0449,4.0523,4.0528,4.0564,4.0589,4.0619,4.0656,4.0619,4.0621,4.0624,4.0721,4.0717,4.0724,4.0665,4.0667,4.0668,4.0716,0,3.9993,4.0091,4.0129,4.0208,4.0259,4.0288,4.0334,4.0382,4.0416,4.0462,4.0498,4.055,4.0553,4.0575,4.0606,4.0645,4.0676,4.0642,4.0705,4.0707,4.0689,4.0733,4.073,4.0772,4.0723,4.0724,4.0725,0,4.0057,4.0112,4.0196,4.0263,4.0286,4.0327,4.0387,4.0432,4.0487,4.0509,4.055,4.0574,4.0628,4.0618,4.0693,4.0669,4.0697,4.072,4.0722,4.0729,4.0717,4.074,4.0787,4.0793,4.0736,4.0735,4.0734,0,4.0063,4.0158,4.0221,4.0249,4.0329,4.0357,4.0391,4.0446,4.0481,4.0533,4.0556,4.0613,4.0644,4.0686,4.0723,4.0713,4.0794,4.0788,4.0813,4.0812,4.0828,4.0826,4.0879,4.0847,4.0847,4.0847,4.0847,0,4.0108,4.0158,4.0225,4.0263,4.032,4.0363,4.0417,4.0453,4.0501,4.0546,4.0574,4.0615,4.0662,4.0708,4.0737,4.0794,4.0808,4.0826,4.0833,4.0824,4.0821,4.0842,4.084,4.0848,4.0848,4.0848,4.0847,0,4.0124,4.0171,4.0241,4.0312,4.0331,4.0369,4.0429,4.0466,4.0502,4.0558,4.0573,4.0627,4.0683,4.0725,4.0797,4.0817,4.0877,4.0885,4.0859,4.0863,4.0885,4.0882,4.0952,4.0964,4.0924,4.0924,4.0925,0,4.015,4.0189,4.0265,4.0298,4.0333,4.0385,4.0422,4.0466,4.0503,4.0569,4.0598,4.0656,4.0706,4.0793,4.0838,4.0892,4.0901,4.0922,4.0909,4.0898,4.0901,4.0898,4.0902,4.0923,4.0924,4.0924,4.0924,0,4.019,4.0211,4.0264,4.0325,4.0369,4.0418,4.0468,4.0493,4.0545,4.0585,4.0644,4.0682,4.0756,4.0813,4.0873,4.0906,4.0923,4.0928,4.0936,4.0927,4.091,4.0919,4.0863,4.0926,4.0926,4.0925,4.0925,4.0925,4.0211,4.0248,4.0307,4.0365,4.0408,4.0454,4.0493,4.0534,4.0584,4.065,4.0672,4.0732,4.0786,4.0868,4.0902,4.0949,4.0948,4.0961,4.0964,4.0966,4.0965,4.0903,4.0959,4.0959,4.0959,4.0959,4.0959,0,4.0252,4.0292,4.0345,4.0415,4.046,4.0475,4.0531,4.0567,4.0621,4.0671,4.0719,4.0787,4.0842,4.0892,4.0949,4.0977,4.0986,4.099,4.0988,4.0995,4.0962,4.0949,4.0982,4.0982,4.0982,4.0982,4.0982,4.0982,4.0278,4.0341,4.037,4.0454,4.0493,4.0554,4.0585,4.0627,4.0667,4.0742,4.0789,4.0822,4.0871,4.0932,4.0983,4.0996,4.1016,4.1018,4.1032,4.1,4.0998,4.0995,4.0983,4.1022,4.1022,4.1062,4.1062,4.1062]}]]